WZZ64YA EGGW-EPKT

Flight info

Callsign WZZ64YA
Flight time N/A
Altitude 35000
Route MATCH Q295 BRAIN M197 REDFA L620 TACHA DCT ZUCKA DCT GOBAX DCT LASIS T714 MOFKE
Aircraft A320/M-SDE3FGHIRWY/LB1

Departure

Time 2026-04-27 19:53
Airport London Luton Airport (EGGW)

Arrival

Time N/A
Airport Katowice Wojciech Korfanty International Airport (EPKT)
Time Latitude Longitude Altitude Speed Heading
2026-04-27 19:17 51.88081 -0.37745 524 ft 0 kts 128°
2026-04-27 19:44 51.88086 -0.37755 523 ft 4 kts 128°
2026-04-27 19:44 51.88100 -0.37784 523 ft 4 kts 131°
2026-04-27 19:45 51.88117 -0.37799 523 ft 4 kts 203°
2026-04-27 19:45 51.88135 -0.37776 523 ft 3 kts 232°
2026-04-27 19:45 51.88138 -0.37770 523 ft 0 kts 231°
2026-04-27 19:48 51.88118 -0.37804 523 ft 10 kts 224°
2026-04-27 19:48 51.88058 -0.37884 523 ft 12 kts 218°
2026-04-27 19:49 51.87984 -0.37977 523 ft 15 kts 216°
2026-04-27 19:49 51.87881 -0.38009 523 ft 17 kts 169°
2026-04-27 19:49 51.87792 -0.37887 523 ft 18 kts 117°
2026-04-27 19:49 51.87736 -0.37697 522 ft 18 kts 115°
2026-04-27 19:50 51.87674 -0.37507 521 ft 18 kts 133°
2026-04-27 19:50 51.87557 -0.37463 522 ft 19 kts 192°
2026-04-27 19:50 51.87490 -0.37615 523 ft 18 kts 254°
2026-04-27 19:50 51.87459 -0.37795 522 ft 17 kts 254°
2026-04-27 19:51 51.87430 -0.37960 524 ft 13 kts 253°
2026-04-27 19:51 51.87378 -0.38057 523 ft 12 kts 208°
2026-04-27 19:51 51.87291 -0.38115 522 ft 14 kts 185°
2026-04-27 19:51 51.87253 -0.38057 524 ft 8 kts 85°
2026-04-27 19:52 51.87257 -0.38033 524 ft 0 kts 73°
2026-04-27 19:52 51.87258 -0.38029 524 ft 1 kts 73°
2026-04-27 19:52 51.87275 -0.37929 524 ft 39 kts 74°
2026-04-27 19:53 51.87712 -0.35356 681 ft 171 kts 76°
2026-04-27 19:53 51.88018 -0.33475 1530 ft 175 kts 75°
2026-04-27 19:53 51.88347 -0.31517 2179 ft 189 kts 75°
2026-04-27 19:54 51.88721 -0.29360 2491 ft 208 kts 74°
2026-04-27 19:54 51.89149 -0.26985 2797 ft 233 kts 73°
2026-04-27 19:54 51.89579 -0.24318 3158 ft 258 kts 85°
2026-04-27 19:54 51.89217 -0.21438 3650 ft 271 kts 119°
2026-04-27 19:55 51.87943 -0.19257 3735 ft 269 kts 148°
2026-04-27 19:55 51.86284 -0.17897 3756 ft 267 kts 159°
2026-04-27 19:55 51.84539 -0.16868 3994 ft 268 kts 162°
2026-04-27 19:55 51.82774 -0.15880 4245 ft 270 kts 161°
2026-04-27 19:56 51.81007 -0.14810 4496 ft 271 kts 159°
2026-04-27 19:56 51.79255 -0.13669 4684 ft 273 kts 158°
2026-04-27 19:56 51.77513 -0.12456 4739 ft 273 kts 153°
2026-04-27 19:56 51.76074 -0.10504 4745 ft 273 kts 125°
2026-04-27 19:57 51.75367 -0.07683 4746 ft 274 kts 97°
2026-04-27 19:57 51.75453 -0.04618 4747 ft 275 kts 83°
2026-04-27 19:57 51.75709 -0.01552 4746 ft 276 kts 82°
2026-04-27 19:57 51.75972 0.01508 4746 ft 276 kts 82°
2026-04-27 19:58 51.76235 0.04576 4746 ft 276 kts 82°
2026-04-27 19:58 51.76496 0.07641 4746 ft 276 kts 82°
2026-04-27 19:58 51.76754 0.10706 4746 ft 276 kts 83°
2026-04-27 19:58 51.77008 0.13774 4746 ft 276 kts 83°
2026-04-27 19:59 51.77258 0.16842 4746 ft 276 kts 83°
2026-04-27 19:59 51.77507 0.19906 4746 ft 276 kts 83°
2026-04-27 19:59 51.77758 0.22978 4746 ft 276 kts 83°
2026-04-27 19:59 51.78009 0.26044 4754 ft 276 kts 83°
2026-04-27 20:00 51.78262 0.29146 5460 ft 279 kts 83°
2026-04-27 20:00 51.78514 0.32265 6345 ft 282 kts 83°
2026-04-27 20:00 51.78766 0.35426 7156 ft 286 kts 83°
2026-04-27 20:00 51.79021 0.38627 7928 ft 289 kts 83°
2026-04-27 20:01 51.79281 0.41871 8668 ft 293 kts 83°
2026-04-27 20:01 51.79543 0.45157 9378 ft 297 kts 83°
2026-04-27 20:01 51.79808 0.48489 10059 ft 301 kts 83°
2026-04-27 20:01 51.80078 0.51946 10301 ft 321 kts 83°
2026-04-27 20:02 51.80365 0.55647 10431 ft 342 kts 83°
2026-04-27 20:02 51.80668 0.59546 10705 ft 355 kts 83°
2026-04-27 20:02 51.80977 0.63537 11200 ft 360 kts 83°
2026-04-27 20:02 51.81462 0.67526 11708 ft 364 kts 76°
2026-04-27 20:03 51.82080 0.71511 12213 ft 367 kts 76°
2026-04-27 20:03 51.82701 0.75524 12694 ft 370 kts 76°
2026-04-27 20:03 51.83328 0.79580 13159 ft 373 kts 76°
2026-04-27 20:03 51.83973 0.83661 13608 ft 376 kts 75°
2026-04-27 20:04 51.84684 0.87747 14043 ft 379 kts 74°
2026-04-27 20:04 51.85442 0.91843 14466 ft 382 kts 73°
2026-04-27 20:04 51.86224 0.95953 14873 ft 384 kts 73°
2026-04-27 20:04 51.86746 0.98699 15137 ft 386 kts 73°
2026-04-27 20:05 51.87789 1.04281 15650 ft 389 kts 73°
2026-04-27 20:05 51.88548 1.08433 16010 ft 392 kts 74°
2026-04-27 20:05 51.89318 1.12694 16365 ft 394 kts 74°
2026-04-27 20:05 51.90085 1.16969 16708 ft 397 kts 74°
2026-04-27 20:06 51.90854 1.21271 17045 ft 399 kts 74°
2026-04-27 20:06 51.91626 1.25604 17376 ft 401 kts 74°
2026-04-27 20:06 51.92398 1.29952 17698 ft 403 kts 74°
2026-04-27 20:06 51.93176 1.34342 18011 ft 406 kts 74°
2026-04-27 20:07 51.93958 1.38745 18311 ft 408 kts 74°